Location: Lafig�re
(44.4503°N, 4.0357°E)
Time: 16:28:12
(UTC+00:00)

CREW DRAGON DEMO-1 DEB - Pass Details

Date: 24 September 2020
Orbit: 361 x 363 km, 51.6° (Epoch: 25 October)

Event Time Altitude Azimuth Distance (km) Brightness Sun altitude
Rises 18:30:02 0° 302° (WNW) 2,199 8.1 -10.3°
Reaches altitude 10° 18:32:07 10° 310° (NW) 1,351 6.6 -10.6°
Maximum altitude 18:35:01 41° 23° (NNE) 539 3.5 -11.2°
Enters shadow 18:36:47 19° 86° (E) 930 4.2 -11.5°
